TimeMST,TemperatureF,Dew PointF,Humidity,Sea Level PressureIn,VisibilityMPH,Wind Direction,Wind SpeedMPH,Gust SpeedMPH,PrecipitationIn,Events,Conditions,WindDirDegrees,DateUTC
12:53 AM,53.1,45.0,74,30.06,10.0,West,4.6,-,N/A,,Clear,270,2014-03-03 07:53:00
1:53 AM,53.1,45.0,74,30.04,10.0,Calm,Calm,-,N/A,,Clear,0,2014-03-03 08:53:00
2:53 AM,53.1,45.0,74,29.99,10.0,Calm,Calm,-,N/A,,Clear,0,2014-03-03 09:53:00
3:53 AM,52.0,45.0,77,29.98,10.0,Calm,Calm,-,N/A,,Clear,0,2014-03-03 10:53:00
4:53 AM,51.1,45.0,80,29.97,10.0,Calm,Calm,-,N/A,,Clear,0,2014-03-03 11:53:00
5:53 AM,51.1,46.0,83,29.99,10.0,NNW,4.6,-,N/A,,Clear,330,2014-03-03 12:53:00
6:53 AM,51.1,45.0,80,29.99,10.0,Calm,Calm,-,N/A,,Clear,0,2014-03-03 13:53:00
7:53 AM,52.0,45.0,77,30.01,10.0,SW,3.5,-,N/A,,Clear,230,2014-03-03 14:53:00
8:53 AM,54.0,45.0,72,30.03,10.0,West,3.5,-,N/A,,Clear,260,2014-03-03 15:53:00
9:53 AM,60.1,45.0,57,30.02,10.0,Calm,Calm,-,N/A,,Clear,0,2014-03-03 16:53:00
10:53 AM,61.0,45.0,56,29.99,10.0,Calm,Calm,-,N/A,,Clear,0,2014-03-03 17:53:00
11:53 AM,64.9,43.0,45,29.98,10.0,West,4.6,-,N/A,,Clear,270,2014-03-03 18:53:00
12:53 PM,66.9,39.9,37,29.96,10.0,West,3.5,-,N/A,,Clear,270,2014-03-03 19:53:00
1:53 PM,69.1,42.1,38,29.94,10.0,NNW,11.5,25.3,N/A,,Clear,340,2014-03-03 20:53:00
2:53 PM,70.0,39.0,32,29.91,10.0,WNW,5.8,-,N/A,,Clear,290,2014-03-03 21:53:00
3:53 PM,70.0,37.0,30,29.91,10.0,NW,6.9,-,N/A,,Clear,320,2014-03-03 22:53:00
4:53 PM,71.1,36.0,28,29.88,10.0,West,3.5,-,N/A,,Clear,270,2014-03-03 23:53:00
5:53 PM,68.0,41.0,37,29.89,10.0,West,10.4,-,N/A,,Clear,280,2014-03-04 00:53:00
6:53 PM,66.0,43.0,43,29.92,10.0,NW,10.4,-,N/A,,Clear,310,2014-03-04 01:53:00
7:53 PM,64.0,43.0,46,29.95,10.0,NNW,9.2,-,N/A,,Clear,330,2014-03-04 02:53:00
8:53 PM,62.1,43.0,50,29.96,10.0,NW,4.6,-,N/A,,Clear,310,2014-03-04 03:53:00
9:53 PM,59.0,43.0,55,29.96,10.0,West,4.6,-,N/A,,Clear,270,2014-03-04 04:53:00
10:53 PM,57.0,45.0,64,29.98,10.0,WSW,5.8,-,N/A,,Clear,250,2014-03-04 05:53:00
11:53 PM,57.0,44.1,62,29.96,10.0,Calm,Calm,-,N/A,,Clear,0,2014-03-04 06:53:00